Regional Weather Roundup
Issued by NWS Sterling, VA

Home | Current Version | Previous Version | Graphics & Text | Print | Product List | Glossary On
Versions: 1 2 3 4 5 6 7 8 9 10 11 12 13 14 15 16 17 18 19 20 21 22 23 24 25 26 27 28 29 30 31 32 33 34 35 36 37 38 39 40 41 42 43 44 45 46 47 48 49 50
735
ASUS41 KLWX 030510
RWRLWX

REGIONAL WEATHER ROUNDUP
NATIONAL WEATHER SERVICE BALTIMORE MD/WASHINGTON DC
1200 AM EST SAT DEC 03 2016

Note: "FAIR" indicates few or no clouds below 12,000 feet
with no significant weather and/or obstructions to visibility.
 TC=TEMPERATURE CELSIUS

 * =Non NWS site. Station does not report precipitation (e.g. rain,
    snow, etc.), thunder, or fog.

DCZ001-MDZ009-015-VAZ040>042-051-053>054-030600-
WASHINGTON METRO

CITY           SKY/WX    TMP DP  RH WIND       PRES   REMARKS
WASHINGTON NAT MOCLDY    45  26  47 W8        30.14R
DULLES         MOCLDY    42  25  50 NW22G30   30.12R
ANDREWS AFB    CLOUDY    43  25  49 W13       30.11S
FT BELVOIR     PTCLDY    42  25  51 NW7       30.14R
QUANTICO       CLEAR     43  26  51 W8        30.16S
LEESBURG*      CLOUDY    43  32  65 W9        30.14R
MANASSAS*      MOCLDY    43  27  52 W8        30.14S
GAITHERSBURG*  CLOUDY    39  25  56 W7        30.14S

$$

MDZ006>007-011-014-030600-
BALTIMORE METRO

CITY           SKY/WX    TMP DP  RH WIND       PRES   REMARKS
BWI AIRPORT    MOCLDY    43  27  53 W12       30.09S
MD SCIENCE CTR   N/A     45  26  47 MISG      30.09S
ANNAPOLIS      CLOUDY    46  27  47 W9        30.10S
FORT MEADE*    CLOUDY    41  28  60 W8        30.13S

$$

MDZ012-015-019>023-030600-
MARYLAND EASTERN SHORE

CITY           SKY/WX    TMP DP  RH WIND       PRES   REMARKS
OCEAN CITY     PTCLDY    40  28  62 W6        30.08F
SALISBURY      PTCLDY    42  27  55 NW9       30.09S
BAY BRIDGE AP* CLOUDY    45  28  53 W14G23    30.11R
CAMBRIDGE*     MOCLDY    43  28  56 W7        30.10F
EASTON*        CLOUDY    46  27  48 NW10G17   30.13F

$$

MDZ017>025-030600-
SOUTHERN MARYLAND

CITY           SKY/WX    TMP DP  RH WIND       PRES   REMARKS
PATUXENT RIVER PTCLDY    43  25  49 W13       30.13R
ST INIGOES     CLEAR     43  27  53 W13       30.13S
LEONARDTOWN*   MOCLDY    41  28  60 W7        30.15R

$$

MDZ003>005-030600-
NORTH CENTRAL MARYLAND

CITY           SKY/WX    TMP DP  RH WIND       PRES   REMARKS
FREDERICK*     MOCLDY    41  30  65 W10       30.13R
HAGERSTOWN APT CLOUDY    42  27  55 W20       30.09S
WESTMINSTER*   CLOUDY    39  27  60 W10       30.07S

$$

MDZ501>502-030600-
WESTERN MARYLAND

CITY           SKY/WX    TMP DP  RH WIND       PRES   REMARKS
OAKLAND*       CLOUDY    28  28 100 W15G28    30.09R WCI  17
CUMBERLAND*    NOT AVBL

$$

VAZ025>031-030600-
SHENANDOAH VALLEY

CITY           SKY/WX    TMP DP  RH WIND       PRES   REMARKS
WINCHESTER*    CLOUDY    39  27  60 W13G31    30.13R
FRONT ROYAL*   CLOUDY    41  27  56 W8        30.14R
LURAY*         CLOUDY    41  30  65 SW5       30.16R
NEW MARKET*    CLOUDY    40  24  54 W6        30.16R
STAUNTON*      CLOUDY    37  24  59 W5        30.19R
WAYNESBORO*    FAIR      36  22  56 NW8       30.16S

$$

WVZ021-048>050-054>055-030600-
EASTERN WEST VIRGINIA PANHANDLE

CITY           SKY/WX    TMP DP  RH WIND       PRES   REMARKS
MARTINSBURG    CLOUDY    41  27  57 CALM      30.12R
PETERSBURG*    CLOUDY    41  27  57 N6        30.19R

$$

VAZ036>039-050-030600-
CENTRAL FOOTHILLS

CITY           SKY/WX    TMP DP  RH WIND       PRES   REMARKS
CHARLOTTESVILL CLOUDY    43  25  49 CALM      30.17R
CULPEPER*      CLOUDY    42  28  57 CALM      30.17R
ORANGE*          N/A     37  30  75 CALM      30.18R
GORDONSVILLE*  MOCLDY    41  26  55 W5        30.16R
WARRENTON*     CLOUDY    43  22  43 W3        30.14S

$$

VAZ055>057-030600-
NORTH AND CENTRAL PIEDMONT

CITY           SKY/WX    TMP DP  RH WIND       PRES   REMARKS
FREDERICKSBRG* MOCLDY    43  30  61 W5        30.15S
STAFFORD*      MOCLDY    41  28  60 SW3       30.19S

$$

NCZ024-NYZ072-PAZ021-071-VAZ022-071-030600-
OTHER REGIONAL OBSERVATIONS

CITY           SKY/WX    TMP DP  RH WIND       PRES   REMARKS
NEW YORK CITY  CLOUDY    44  29  55 MISG      29.93S
PHILADELPHIA   MOCLDY    44  29  55 W17       30.02S
PITTSBURGH     CLOUDY    38  31  76 W14       30.19R
ROANOKE        CLOUDY    39  26  59 NW8       30.24R
RICHMOND       PTCLDY    39  29  67 NW3       30.17R
RALEIGH        PTCLDY    44  30  57 VRB5      30.19R

$$

ANZ530>537-030600-
MARINE OBSERVATIONS

STATION/POSITION TIME  TEMP    WIND        PRES
                       AIR SEA DIR/SP/G
                 (UTC) (F)     (DEG/KT/KT) (MB)
THOMAS PT LIGHT  0500   44 50  270/ 15/ 17   N/A
BALT KEY BRIDGE  0448   44     250/ 17/ 20 1018.6F
COVE POINT       0448   43     320/ 12/ 19 1020.5S
LEWISETTA        0448   45 51  330/ 12/ 21 1020.3S
SOLOMONS ISLAND  0448   44 52  270/  7/ 10   N/A
PINEY POINT      0448          330/ 23/ 25   N/A

$$





USA.gov is the U.S. government's official web portal to all federal, state and local government web resources and services.